Location: Aldenham
(51.6667°N, 0.3500°W)
Time: 07:27:25
(UTC+00:00)

Explorer 7 - Pass Details

Date: 16 February 2026
Orbit: 430 x 541 km, 50.2° (Epoch: 12 March)

Event Time Altitude Azimuth Distance (km) Brightness Sun altitude
Rises 15:41:29 0° 214° (SW) 2,435 11.7 12.2°
Reaches altitude 10° 15:43:54 10° 198° (SSW) 1,586 10.3 11.9°
Maximum altitude 15:46:42 22° 146° (SSE) 1,071 8.4 11.6°
Drops below altitude 10° 15:49:35 10° 95° (E) 1,642 8.9 11.2°
Sets 15:52:07 0° 80° (E) 2,549 9.7 10.9°
